Overview Statistics Trail Chart Weather Telemetry Raw packets
 

This is the latest recevied weather packets stored in our database for station/object IONIA-WX. If no packets are shown the sender has not sent any weather packets the latest 10 day(s).

<< 7 8 9 10 11 12 13 >>
Time Temp. Humidity Pressure Rain* Wind** Luminosity Snow
1788437718 21.67° C 91% 984.9 hPa 0 mm - - -
1788436821 21.11° C 91% 984.9 hPa 0 mm - - -
1788435918 20.56° C 88% 984.4 hPa 0 mm - - -
1788435020 20.56° C 87% 984.7 hPa 0 mm - - -
1788434122 20.56° C 87% 984.7 hPa 0 mm - - -
1788433221 20.56° C 87% 984.7 hPa 0 mm - - -
1788432323 20.56° C 87% 983.6 hPa 0 mm - - -
1788431422 20.56° C 86% 983.9 hPa 0 mm - - -
1788430522 20.56° C 86% 983.9 hPa 0 mm - - -
1788429622 20.56° C 86% 983.9 hPa 0 mm - - -
1788428722 21.11° C 88% 983.8 hPa 0 mm - - -
1788427870 21.11° C 88% 983.9 hPa 0 mm - - -
1788426921 21.11° C 88% 983.9 hPa 0 mm - - -
1788426022 21.11° C 88% 983.9 hPa 0 mm - - -
1788425142 -17.78° C 100% - 0 mm - - -
1788424314 -17.78° C 100% - 0 mm - - -
1788423322 21.67° C 88% 984.1 hPa 0 mm - - -
1788422422 21.67° C 94% 983.6 hPa 0 mm - - -
1788421516 21.67° C 88% 983.6 hPa 0 mm - - -
1788420621 21.67° C 88% 983.6 hPa 0 mm - - -
1788419721 21.67° C 88% 983.6 hPa 0 mm - - -
1788418821 21.67° C 88% 983.6 hPa 0 mm - - -
1788418084 -17.78° C 100% - 0 mm - - -
1788417021 22.22° C 91% 983.4 hPa 0 mm - - -
1788416121 22.22° C 91% 983.4 hPa 0 mm - - -

* Rain latest hour (hover to see other rain measurements)
** Current wind speed in m/s (hover to see current wind gust speed)